Scio, NY

8:41 PM EST on January 22, 2017 (GMT -0500)
Wellsville Municipal-Tarantine

Weather History for KELZ - October, 2012

Change the Weather History Date:

Friday, October 19, 2012

  Actual Average (KDSV) Record (KDSV)
Temperature  
Mean Temperature 54 °F -  
Max Temperature 64 °F 57 °F 85 °F (1963)
Min Temperature 44 °F 36 °F 16 °F (1974)
Degree Days  
Heating Degree Days 12    
Growing Degree Days 4 (Base 50)    
Moisture  
Dew Point 45 °F    
Average Humidity 87    
Maximum Humidity 96    
Minimum Humidity 45    
Precipitation  
Precipitation 0.15 in - - ()
Sea Level Pressure  
Sea Level Pressure 29.78 in    
Wind  
Wind Speed 5 mph (SSE)    
Max Wind Speed 12 mph    
Max Gust Speed 17 mph    
Visibility 6 miles    
Events Fog , Rain    
Averages and records for this station are not official NWS values.
T = Trace of Precipitation, MM = Missing Value Source: NWS Daily Summary

Daily Weather History Graph

Daily Weather History Graph

Search for Another Location

Airport or City:

Trip Planner

Search our weather history database for the weather conditions in past years. The results will help you decide how hot, cold, wet, or windy it might be!

Date:

Astronomy

Oct. 19, 2012 Rise Set
Actual Time 7:29 AM EDT 6:23 PM EDT
Civil Twilight 7:01 AM EDT 6:51 PM EDT
Nautical Twilight 6:28 AM EDT 7:24 PM EDT
Astronomical Twilight 5:56 AM EDT 7:56 PM EDT
Moon 12:14 PM EDT (10/19) 9:55 PM EDT (10/19)
Length of Visible Light 11h 50m
Length of Day
10h 53m
Waxing Crescent, 23% of the Moon is Illuminated
Oct 19
Waxing Crescent
Oct 21
First Quarter
Oct 29
Full
Nov 6
Last Quarter
Nov 13
New

Hourly Weather History & Observations

Time (EDT) Temp. Windchill Dew Point Humidity Pressure Visibility Wind Dir Wind Speed Gust Speed Precip Events Conditions
12:01 AM 46.4 °F 43.5 °F 44.6 °F 93% 29.88 in 1.8 mi ENE 5.8 mph - 0.02 in Rain Rain
12:10 AM 46.4 °F - 44.6 °F 93% 29.90 in 0.5 mi Calm Calm - 0.03 in Fog , Rain Rain
12:25 AM 46.4 °F 44.3 °F 44.6 °F 93% 29.88 in 0.5 mi East 4.6 mph - 0.08 in Fog , Rain Rain
12:38 AM 46.4 °F 43.5 °F 44.6 °F 93% 29.87 in 0.2 mi ESE 5.8 mph - 0.11 in Fog , Rain Light Rain
12:56 AM 46.0 °F 43.1 °F 44.1 °F 93% 29.84 in 0.5 mi ESE 5.8 mph - 0.12 in Fog , Rain Light Rain
1:01 AM 46.4 °F 42.9 °F 44.6 °F 93% 29.83 in 0.2 mi ESE 6.9 mph - 0.00 in Fog Fog
1:21 AM 44.6 °F 41.4 °F 42.8 °F 93% 29.83 in 3.0 mi SE 5.8 mph - 0.00 in   Mostly Cloudy
1:34 AM 44.6 °F 41.4 °F 42.8 °F 93% 29.83 in 10.0 mi ESE 5.8 mph - 0.00 in   Mostly Cloudy
1:56 AM 45.0 °F 42.6 °F 42.1 °F 90% 29.84 in 10.0 mi Variable 4.6 mph - 0.00 in   Partly Cloudy
2:56 AM 44.1 °F 41.5 °F 42.1 °F 93% 29.84 in 4.0 mi SSE 4.6 mph - N/A   Clear
3:04 AM 44.6 °F 42.2 °F 42.8 °F 93% 29.83 in 10.0 mi SSE 4.6 mph - N/A   Partly Cloudy
3:28 AM 44.6 °F 40.7 °F 42.8 °F 93% 29.82 in 1.0 mi SE 6.9 mph - N/A   Mist
3:33 AM 44.6 °F 42.2 °F 42.8 °F 93% 29.82 in 0.2 mi SE 4.6 mph - N/A Fog Fog
3:56 AM 44.1 °F 42.5 °F 42.1 °F 93% 29.81 in 0.2 mi SE 3.5 mph - N/A Fog Fog
4:42 AM 44.6 °F 41.4 °F 42.8 °F 93% 29.82 in 0.5 mi SSE 5.8 mph - N/A Fog Fog
4:56 AM 45.0 °F 41.2 °F 43.0 °F 93% 29.84 in 0.5 mi SSE 6.9 mph - N/A Fog Fog
5:05 AM 44.6 °F 40.7 °F 42.8 °F 93% 29.82 in 2.0 mi South 6.9 mph - N/A   Overcast
5:13 AM 44.6 °F 41.4 °F 42.8 °F 93% 29.82 in 9.0 mi SE 5.8 mph - N/A   Overcast
5:28 AM 44.6 °F 41.4 °F 42.8 °F 93% 29.80 in 0.8 mi SSE 5.8 mph - N/A   Overcast
5:43 AM 44.6 °F 43.1 °F 42.8 °F 93% 29.80 in 0.2 mi SE 3.5 mph - N/A Fog Fog
5:56 AM 44.1 °F 42.5 °F 43.0 °F 96% 29.81 in 0.2 mi SE 3.5 mph - N/A Fog Fog
6:27 AM 44.6 °F 43.1 °F 42.8 °F 93% 29.79 in 0.5 mi ESE 3.5 mph - N/A Fog Fog
6:56 AM 45.0 °F 43.5 °F 43.0 °F 93% 29.80 in 0.5 mi SE 3.5 mph - N/A Fog Fog
7:02 AM 44.6 °F 42.2 °F 42.8 °F 93% 29.80 in 0.8 mi SSE 4.6 mph - N/A   Overcast
7:05 AM 44.6 °F 42.2 °F 42.8 °F 93% 29.80 in 1.0 mi SSE 4.6 mph - N/A   Overcast
7:10 AM 44.6 °F 42.2 °F 42.8 °F 93% 29.81 in 3.0 mi SSW 4.6 mph - 0.00 in Rain Light Rain
7:18 AM 46.4 °F 43.5 °F 44.6 °F 93% 29.79 in 10.0 mi SSE 5.8 mph - 0.00 in Rain Light Rain
7:34 AM 44.6 °F 40.7 °F 42.8 °F 93% 29.77 in 1.8 mi ESE 6.9 mph - 0.00 in Rain Light Rain
7:44 AM 44.6 °F 40.2 °F 42.8 °F 93% 29.78 in 0.8 mi SE 8.1 mph - 0.00 in   Overcast
7:56 AM 46.0 °F 42.5 °F 44.1 °F 93% 29.79 in 0.5 mi SSE 6.9 mph - 0.00 in Fog Fog
8:01 AM 46.4 °F 43.5 °F 44.6 °F 93% 29.78 in 2.0 mi SE 5.8 mph - N/A   Overcast
8:09 AM 46.4 °F 44.3 °F 44.6 °F 93% 29.78 in 7.0 mi SE 4.6 mph - N/A   Mostly Cloudy
8:19 AM 46.4 °F 42.9 °F 44.6 °F 93% 29.78 in 8.0 mi SE 6.9 mph - N/A   Mostly Cloudy
8:56 AM 48.9 °F - 46.9 °F 93% 29.78 in 10.0 mi SE 6.9 mph - N/A   Overcast
9:09 AM 50.0 °F - 48.2 °F 94% 29.76 in 10.0 mi SE 5.8 mph - 0.01 in   Mostly Cloudy
9:26 AM 50.0 °F - 48.2 °F 94% 29.76 in 10.0 mi SSE 5.8 mph - 0.01 in   Mostly Cloudy
9:56 AM 50.0 °F - 48.0 °F 93% 29.80 in 10.0 mi SW 4.6 mph - 0.01 in Rain Light Rain
10:08 AM 51.8 °F - 48.2 °F 88% 29.79 in 10.0 mi Variable 4.6 mph - 0.00 in Rain Light Rain
10:20 AM 51.8 °F - 48.2 °F 88% 29.76 in 4.0 mi ESE 8.1 mph - 0.02 in Rain Light Rain
10:47 AM 53.6 °F - 50.0 °F 88% 29.76 in 10.0 mi ESE 4.6 mph - 0.02 in Rain Light Rain
10:56 AM 52.0 °F - 50.0 °F 93% 29.78 in 10.0 mi SSE 3.5 mph - 0.02 in   Overcast
11:18 AM 55.4 °F - 51.8 °F 88% 29.76 in 10.0 mi SSE 5.8 mph - N/A   Overcast
11:33 AM 55.4 °F - 51.8 °F 88% 29.75 in 10.0 mi SE 8.1 mph - N/A   Scattered Clouds
11:56 AM 57.9 °F - 51.1 °F 78% 29.75 in 10.0 mi Variable 3.5 mph - N/A   Mostly Cloudy
12:18 PM 57.2 °F - 50.0 °F 77% 29.74 in 10.0 mi Variable 3.5 mph - N/A   Mostly Cloudy
12:45 PM 60.8 °F - 46.4 °F 59% 29.73 in 10.0 mi South 10.4 mph - N/A   Mostly Cloudy
12:56 PM 61.0 °F - 46.9 °F 60% 29.73 in 10.0 mi WSW 9.2 mph - N/A   Mostly Cloudy
1:56 PM 62.1 °F - 43.0 °F 50% 29.70 in 10.0 mi SW 11.5 mph 17.3 mph N/A   Scattered Clouds
3:56 PM 63.0 °F - 41.0 °F 45% 29.67 in 10.0 mi South 4.6 mph - N/A   Partly Cloudy
5:56 PM 59.0 °F - 45.0 °F 60% 29.65 in 10.0 mi South 6.9 mph - N/A   Clear
6:56 PM 55.9 °F - 46.0 °F 69% 29.66 in 10.0 mi SSE 9.2 mph - N/A   Clear
7:56 PM 55.0 °F - 46.9 °F 74% 29.65 in 10.0 mi SSE 8.1 mph - N/A   Clear
8:56 PM 54.0 °F - 48.0 °F 80% 29.65 in 10.0 mi SSE 5.8 mph - N/A   Overcast
10:56 PM 53.1 °F - 48.0 °F 83% 29.65 in 10.0 mi SW 4.6 mph - N/A   Scattered Clouds
11:56 PM 53.1 °F - 44.1 °F 71% 29.66 in 10.0 mi West 5.8 mph - 0.00 in Rain Light Rain